Date,TemperatureHighF,TemperatureAvgF,TemperatureLowF,DewpointHighF,DewpointAvgF,DewpointLowF,HumidityHigh,HumidityAvg,HumidityLow,PressureMaxIn,PressureMinIn,WindSpeedMaxMPH,WindSpeedAvgMPH,GustSpeedMaxMPH,PrecipitationSumIn
2013-2-1,20.0,5.6,-3.0,11.0,-5.9,-12.0,66,58,50,0.00,40.00,22,10,27,0.00
2013-2-2,25.0,19.1,14.0,20.0,10.5,5.0,81,69,56,0.00,40.00,19,10,25,0.04
2013-2-3,25.0,20.4,16.0,17.0,11.2,7.0,84,67,49,0.00,40.00,23,11,31,0.07
2013-2-4,27.0,22.9,15.0,19.0,14.4,9.0,79,69,57,0.00,40.00,19,8,23,0.00
2013-2-5,36.0,27.9,15.0,27.0,20.6,9.0,81,74,64,0.00,40.00,19,10,26,0.00
2013-2-6,44.0,33.5,21.0,30.0,24.7,17.0,85,70,57,0.00,40.00,17,8,24,0.51
2013-2-7,39.0,35.7,32.0,34.0,32.2,28.0,88,86,71,0.00,40.00,16,8,24,5.73
2013-2-8,32.0,28.5,27.0,28.0,21.5,19.0,85,74,69,0.00,40.00,20,9,24,0.00
2013-2-9,36.0,29.9,26.0,28.0,23.6,20.0,85,77,63,0.00,40.00,25,11,34,0.00
2013-2-10,50.0,40.7,32.0,45.0,35.3,28.0,88,81,55,0.00,40.00,35,18,46,0.39
2013-2-11,36.0,31.8,28.0,29.0,21.2,18.0,72,64,58,0.00,40.00,37,25,50,0.00
2013-2-12,38.0,30.5,25.0,25.0,20.2,16.0,78,65,51,0.00,40.00,18,10,22,0.00
2013-2-13,43.0,35.2,27.0,30.0,26.7,23.0,84,71,55,0.00,40.00,16,8,19,0.00
2013-2-14,41.0,36.6,30.0,31.0,27.6,23.0,85,70,49,0.00,40.00,23,14,32,0.00
2013-2-15,30.0,24.3,18.0,25.0,10.8,5.0,82,56,35,0.00,40.00,20,14,26,0.00
2013-2-16,24.0,18.1,12.0,12.0,8.9,5.0,76,66,54,0.00,40.00,16,9,24,0.00
2013-2-17,36.0,25.4,14.0,21.0,13.1,7.0,79,60,42,0.00,40.00,21,12,28,0.00
2013-2-18,56.0,36.8,18.0,42.0,28.0,9.0,89,71,46,0.00,40.00,32,18,41,1.61
2013-2-19,20.0,13.2,6.0,9.0,2.5,-3.0,69,61,51,0.00,40.00,34,23,42,0.00
2013-2-20,24.0,13.9,4.0,10.0,3.4,-5.0,74,63,53,0.00,40.00,14,7,21,0.00
2013-2-21,28.0,21.2,13.0,24.0,15.7,7.0,89,79,69,0.00,40.00,27,13,37,0.00
2013-2-22,34.0,27.3,23.0,31.0,22.7,18.0,89,83,70,0.00,40.00,19,12,27,6.64
2013-2-23,31.0,24.4,18.0,19.0,16.1,12.0,80,70,56,0.00,40.00,16,10,21,3.56
2013-2-24,38.0,25.4,11.0,22.0,16.5,8.0,85,71,44,0.00,40.00,7,4,9,11.96
2013-2-25,40.0,31.6,22.0,29.0,24.3,19.0,87,75,53,0.00,40.00,18,7,23,2.16
2013-2-26,35.0,32.4,30.0,29.0,27.1,26.0,89,81,68,0.00,40.00,26,19,37,0.52
2013-2-27,33.0,30.8,29.0,30.0,27.6,26.0,88,87,86,0.00,40.00,20,14,24,0.63
2013-2-28,35.0,32.3,29.0,29.0,27.3,26.0,88,81,71,0.00,40.00,17,10,20,0.42